Location: Madrid
(40.4000°N, 3.6830°W)
Time: 04:03:48
(UTC+02:00)

ISS - Pass Details

Date: 21 May 2019
Orbit: 408 x 418 km, 51.6° (Epoch: 26 May)

Event Time Altitude Azimuth Distance (km) Brightness Sun altitude
Rises 23:26:02 0° 274° (W) 2,345 0.7 -18.2°
Reaches altitude 10° 23:28:32 10° 293° (WNW) 1,487 0.0 -18.5°
Maximum altitude 23:31:01 19° 341° (NNW) 1,063 -0.9 -18.8°
Drops below altitude 10° 23:33:30 10° 29° (NNE) 1,494 -0.7 -19.1°
Sets 23:36:01 0° 48° (NE) 2,361 0.1 -19.4°
